Inquirer Daily News

Weather

Get conditions and forecasts for any City, State, ZIP code or Country:  
Northeast Philadelphia, PA
on Tuesday, December 25, 2012

Tuesday
Previous Day Next Day
Daily Summary
 ActualAverage (KTTN)Record (KTTN)
Temperature
Mean Temperature °F 33°F  
Max Temperature 39°F 41°F 69°F (1889)
Min Temperature 32°F 25°F -2°F (1983)
Degree Days
Heating Degree Days 30 32  
Month to date heating degree days 721  
Since 1 July heating degree days 1697  
Cooling Degree Days 0 0  
Month to date cooling degree days 0  
Year to date cooling degree days 965  
Moisture
Dew Point 31°F   
Average Humidity 83    
Maximum Humidity 100    
Minimum Humidity 64    
Precipitation
Precipitation 0.00 in 0.11 in 1.10 in (1986)
Month to date precipitation 3.19  
Year to date precipitation 45.93  
Wind
Wind Speed 6 mph   
Max Wind Speed 14 mph   
Max Gust Speed mph   
Visibility 8 miles   
Events     

Key: T is trace of precipitation, MM is missing value
Source: NWS Daily Summary
Time(EST)TemperatureDew PointHumidity Pressure Visibility Wind DirectionWind SpeedGust SpeedPrecipitationEvents Conditions
12:29 AM 33.8°F 33.8°F 100% 29.92 in 1.8 miles NNE 3.5 mph - N/A   Overcast
12:38 AM 33.8°F 33.8°F 100% 29.92 in 2.5 miles Calm Calm - N/A   Overcast
12:54 AM 34.0°F 34.0°F 100% 29.91 in 3.0 miles NE 3.5 mph - N/A   Overcast
1:21 AM 35.6°F 33.8°F 93% 29.91 in 3.0 miles North 4.6 mph - N/A   Overcast
1:29 AM 35.6°F 33.8°F 93% 29.90 in 3.0 miles NNE 3.5 mph - N/A   Overcast
1:54 AM 35.1°F 34.0°F 96% 29.92 in 4.0 miles NNE 3.5 mph - N/A   Overcast
2:54 AM 35.1°F 34.0°F 96% 29.94 in 4.0 miles Variable 3.5 mph - N/A   Overcast
3:26 AM 35.6°F 33.8°F 93% 29.94 in 5.0 miles Calm Calm - N/A   Overcast
3:44 AM 35.6°F 33.8°F 93% 29.94 in 5.0 miles NNW 4.6 mph - N/A   Overcast
3:54 AM 35.1°F 34.0°F 96% 29.94 in 6.0 miles Calm Calm - N/A   Overcast
4:13 AM 35.6°F 33.8°F 93% 29.95 in 5.0 miles NW 3.5 mph - N/A   Overcast
4:27 AM 35.6°F 33.8°F 93% 29.95 in 6.0 miles NW 5.8 mph - N/A   Overcast
4:44 AM 35.6°F 33.8°F 93% 29.95 in 5.0 miles NW 4.6 mph - N/A   Overcast
4:54 AM 35.1°F 34.0°F 96% 29.96 in 5.0 miles WNW 4.6 mph - N/A   Overcast
5:13 AM 35.6°F 33.8°F 93% 29.97 in 5.0 miles NW 6.9 mph - N/A   Overcast
5:54 AM 35.1°F 34.0°F 96% 29.99 in 4.0 miles WNW 4.6 mph - N/A   Overcast
6:54 AM 35.1°F 34.0°F 96% 30.01 in 7.0 miles WNW 6.9 mph - N/A   Overcast
7:08 AM 35.6°F 33.8°F 93% 30.02 in 8.0 miles NW 8.1 mph - N/A   Overcast
7:54 AM 35.1°F 32.0°F 89% 30.04 in 8.0 miles NNW 8.1 mph - N/A   Overcast
8:17 AM 35.6°F 32.0°F 87% 30.05 in 10.0 miles NW 8.1 mph - N/A   Scattered Clouds
8:54 AM 36.0°F 33.1°F 89% 30.07 in 10.0 miles NW 9.2 mph - N/A   Partly Cloudy
9:54 AM 37.9°F 33.1°F 83% 30.11 in 10.0 miles NW 10.4 mph - N/A   Partly Cloudy
10:16 AM 37.4°F 32.0°F 81% 30.12 in 10.0 miles NW 8.1 mph - N/A   Mostly Cloudy
10:36 AM 39.2°F 32.0°F 75% 30.12 in 10.0 miles NW 13.8 mph - N/A   Scattered Clouds
10:54 AM 39.9°F 33.1°F 77% 30.12 in 10.0 miles NW 11.5 mph - N/A   Partly Cloudy
11:11 AM 39.2°F 33.8°F 81% 30.11 in 10.0 miles NW 11.5 mph - N/A   Mostly Cloudy
11:54 AM 39.0°F 32.0°F 76% 30.10 in 10.0 miles NW 10.4 mph - N/A   Overcast
12:54 PM 39.0°F 32.0°F 76% 30.13 in 10.0 miles NW 9.2 mph - N/A   Overcast
1:54 PM 39.0°F 30.9°F 73% 30.13 in 10.0 miles NW 11.5 mph - N/A   Overcast
2:54 PM 39.2°F 30.2°F 70% 30.12 in 10.0 miles NNW 12.7 mph - N/A   Overcast
3:54 PM 39.9°F 28.9°F 65% 30.15 in 10.0 miles NW 9.2 mph - N/A   Overcast
4:54 PM 39.0°F 28.0°F 65% 30.17 in 10.0 miles North 10.4 mph - N/A   Overcast
5:54 PM 37.9°F 27.0°F 65% 30.20 in 10.0 miles North 10.4 mph - N/A   Overcast
6:54 PM 36.0°F 26.1°F 67% 30.22 in 10.0 miles North 10.4 mph - N/A   Overcast
7:10 PM 35.6°F 26.6°F 70% 30.22 in 10.0 miles North 6.9 mph - N/A   Overcast
7:54 PM 36.0°F 26.1°F 67% 30.24 in 10.0 miles North 10.4 mph - N/A   Overcast
8:54 PM 35.1°F 24.1°F 64% 30.25 in 10.0 miles North 11.5 mph - N/A   Overcast
9:54 PM 35.1°F 25.0°F 67% 30.27 in 10.0 miles North 9.2 mph - N/A   Overcast
10:54 PM 34.0°F 24.1°F 67% 30.28 in 10.0 miles NNE 10.4 mph - N/A   Overcast
11:47 PM 32.0°F 24.8°F 75% 30.26 in 10.0 miles NNE 5.8 mph - N/A   Scattered Clouds
11:54 PM 32.0°F 23.0°F 69% 30.27 in 10.0 miles North 4.6 mph - N/A   Partly Cloudy
Astronomy
Sunrise:07:20 AM (EST) Moon Rise:02:46 PM (EST)12/25
Sunset:04:40 PM (EST) Moon Set:04:50 AM (EST)12/25
Moon Phase
Dec. 25 Dec. 28 Jan. 04 Jan. 11 Jan. 18

Copyright © 2014 The Weather Underground, Inc.